When you browse on this site, cookies collect data to enhance your experience and personalize the content and advertising you see.
Visit our Privacy Policy to learn more. By continuing to use the site, you agree to this use of cookies and data.
  • In Schweiz
  • Länderverzeichnis
  • Für 7 Tage
  • Wassertemperatur
  • Wetterkarte
  • Widgets
  • user-avatar
    Anmelden

    Stündliche Wetter Volodarskoe

    Heute, 22 Februar, Samstag

    Zeit Temperatur Niederschläge Wind Luftdruck Luftfeuchtigkeit
    00:00 0°C° 0 mm 4 m/S 754 mmHg 96%
    01:00 0°C° 0 mm 4 m/S 754 mmHg 95%
    02:00 0°C° 0 mm 4 m/S 754 mmHg 94%
    03:00 0°C° 0 mm 4 m/S 754 mmHg 95%
    04:00 0°C° 0 mm 4 m/S 755 mmHg 95%
    05:00 0°C° 0 mm 4 m/S 755 mmHg 95%
    06:00 0°C° 0.1 mm 4 m/S 755 mmHg 96%
    07:00 0°C° 0.1 mm 4 m/S 756 mmHg 96%
    08:00 0°C° 0.1 mm 4 m/S 756 mmHg 96%
    09:00 0°C° 0.3 mm 4 m/S 756 mmHg 96%
    10:00 0°C° 0.3 mm 4 m/S 756 mmHg 96%
    11:00 0°C° 0.3 mm 4 m/S 756 mmHg 96%
    12:00 0°C° 0.1 mm 4 m/S 756 mmHg 96%
    13:00 0°C° 0.1 mm 4 m/S 756 mmHg 96%
    14:00 0°C° 0.1 mm 4 m/S 756 mmHg 96%
    15:00 0°C° 0.2 mm 4 m/S 757 mmHg 96%
    16:00 0°C° 0.2 mm 4 m/S 757 mmHg 96%
    17:00 0°C° 0.2 mm 4 m/S 757 mmHg 97%
    18:00 +1°C° 0.1 mm 3 m/S 757 mmHg 97%
    19:00 +1°C° 0.1 mm 3 m/S 757 mmHg 97%
    20:00 +1°C° 0.1 mm 3 m/S 757 mmHg 97%
    21:00 +1°C° 0 mm 3 m/S 757 mmHg 96%
    22:00 0°C° 0 mm 3 m/S 757 mmHg 96%
    23:00 0°C° 0 mm 3 m/S 757 mmHg 96%

    Morgen, 23 Februar, Sonntag

    Zeit Temperatur Niederschläge Wind Luftdruck Luftfeuchtigkeit
    00:00 0°C° 0 mm 3 m/S 757 mmHg 95%
    01:00 0°C° 0 mm 3 m/S 757 mmHg 95%
    02:00 +1°C° 0 mm 2 m/S 757 mmHg 95%
    03:00 +1°C° 0 mm 2 m/S 757 mmHg 92%
    04:00 +1°C° 0 mm 2 m/S 756 mmHg 90%
    05:00 +1°C° 0 mm 2 m/S 756 mmHg 88%
    06:00 0°C° 0 mm 3 m/S 756 mmHg 87%
    07:00 0°C° 0 mm 3 m/S 756 mmHg 87%
    08:00 -1°C° 0 mm 4 m/S 756 mmHg 86%
    09:00 0°C° 0 mm 4 m/S 756 mmHg 81%
    10:00 +1°C° 0 mm 5 m/S 755 mmHg 76%
    11:00 +2°C° 0 mm 6 m/S 755 mmHg 71%
    12:00 +2°C° 0 mm 6 m/S 755 mmHg 70%
    13:00 +2°C° 0 mm 7 m/S 754 mmHg 69%
    14:00 +2°C° 0 mm 8 m/S 753 mmHg 69%
    15:00 +2°C° 0 mm 8 m/S 753 mmHg 69%
    16:00 +1°C° 0 mm 8 m/S 752 mmHg 70%
    17:00 +1°C° 0 mm 8 m/S 752 mmHg 70%
    18:00 +1°C° 0 mm 8 m/S 751 mmHg 72%
    19:00 +1°C° 0 mm 8 m/S 751 mmHg 74%
    20:00 +1°C° 0 mm 9 m/S 751 mmHg 76%
    21:00 +1°C° 0 mm 9 m/S 751 mmHg 79%
    22:00 +1°C° 0 mm 8 m/S 750 mmHg 82%
    23:00 +1°C° 0 mm 8 m/S 750 mmHg 86%

    übermorgen, 24 Februar, Montag

    Zeit Temperatur Niederschläge Wind Luftdruck Luftfeuchtigkeit
    00:00 +1°C° 0 mm 8 m/S 749 mmHg 86%
    01:00 +1°C° 0 mm 8 m/S 749 mmHg 87%
    02:00 +1°C° 0 mm 8 m/S 748 mmHg 88%
    03:00 +1°C° 0 mm 8 m/S 747 mmHg 88%
    04:00 +1°C° 0 mm 8 m/S 746 mmHg 88%
    05:00 +1°C° 0 mm 9 m/S 745 mmHg 88%
    06:00 +1°C° 0 mm 9 m/S 744 mmHg 86%
    07:00 +1°C° 0 mm 10 m/S 743 mmHg 84%
    08:00 +1°C° 0 mm 11 m/S 742 mmHg 83%
    09:00 0°C° 0.9 mm 12 m/S 741 mmHg 86%
    10:00 0°C° 0.9 mm 13 m/S 739 mmHg 89%
    11:00 0°C° 0.9 mm 13 m/S 738 mmHg 92%
    12:00 +1°C° 1.6 mm 13 m/S 736 mmHg 92%
    13:00 +2°C° 1.6 mm 12 m/S 735 mmHg 92%
    14:00 +3°C° 1.6 mm 12 m/S 733 mmHg 92%
    15:00 +2°C° 0.1 mm 11 m/S 733 mmHg 88%
    16:00 +1°C° 0.1 mm 9 m/S 732 mmHg 84%
    17:00 0°C° 0.1 mm 8 m/S 732 mmHg 81%
    18:00 0°C° 0.2 mm 8 m/S 733 mmHg 85%
    19:00 0°C° 0.2 mm 8 m/S 734 mmHg 89%
    20:00 0°C° 0.2 mm 9 m/S 735 mmHg 93%
    21:00 -2°C° 0.5 mm 11 m/S 737 mmHg 91%
    22:00 -2°C° 0.5 mm 12 m/S 738 mmHg 88%
    23:00 -4°C° 0.5 mm 14 m/S 740 mmHg 85%

    25 Februar, Dienstag

    Zeit Temperatur Niederschläge Wind Luftdruck Luftfeuchtigkeit
    00:00 -4°C° 0 mm 13 m/S 742 mmHg 82%
    01:00 -3°C° 0 mm 12 m/S 744 mmHg 78%
    02:00 -2°C° 0 mm 11 m/S 745 mmHg 75%
    03:00 -3°C° 0 mm 10 m/S 747 mmHg 74%
    04:00 -4°C° 0 mm 9 m/S 748 mmHg 74%
    05:00 -4°C° 0 mm 8 m/S 749 mmHg 73%
    06:00 -4°C° 0 mm 8 m/S 750 mmHg 71%
    07:00 -3°C° 0 mm 7 m/S 751 mmHg 69%
    08:00 -3°C° 0 mm 7 m/S 753 mmHg 67%
    09:00 -1°C° 0 mm 6 m/S 753 mmHg 63%
    10:00 +1°C° 0 mm 6 m/S 753 mmHg 59%
    11:00 +2°C° 0 mm 5 m/S 753 mmHg 56%
    12:00 +2°C° 0 mm 5 m/S 753 mmHg 54%
    13:00 +3°C° 0 mm 6 m/S 754 mmHg 53%
    14:00 +4°C° 0 mm 6 m/S 754 mmHg 52%
    15:00 +3°C° 0 mm 6 m/S 753 mmHg 56%
    16:00 +2°C° 0 mm 5 m/S 753 mmHg 59%
    17:00 +2°C° 0 mm 5 m/S 752 mmHg 63%
    18:00 +1°C° 0 mm 5 m/S 752 mmHg 67%
    19:00 +1°C° 0 mm 6 m/S 752 mmHg 72%
    20:00 +1°C° 0 mm 6 m/S 752 mmHg 76%
    21:00 +1°C° 0 mm 6 m/S 752 mmHg 78%
    22:00 +1°C° 0 mm 6 m/S 752 mmHg 80%
    23:00 +1°C° 0 mm 6 m/S 751 mmHg 82%

    26 Februar, Mittwoch

    Zeit Temperatur Niederschläge Wind Luftdruck Luftfeuchtigkeit
    00:00 +1°C° 0 mm 6 m/S 751 mmHg 82%
    01:00 +1°C° 0 mm 6 m/S 751 mmHg 83%
    02:00 +1°C° 0 mm 6 m/S 751 mmHg 84%
    03:00 -1°C° 0 mm 7 m/S 750 mmHg 85%
    04:00 -1°C° 0 mm 7 m/S 750 mmHg 86%
    05:00 -1°C° 0 mm 7 m/S 749 mmHg 87%
    06:00 0°C° 0 mm 7 m/S 749 mmHg 85%
    07:00 0°C° 0 mm 7 m/S 749 mmHg 84%
    08:00 +1°C° 0 mm 8 m/S 749 mmHg 82%
    09:00 +2°C° 0 mm 8 m/S 748 mmHg 77%
    10:00 +4°C° 0 mm 8 m/S 748 mmHg 71%
    11:00 +3°C° 0 mm 9 m/S 748 mmHg 66%
    12:00 +5°C° 0 mm 9 m/S 747 mmHg 66%
    13:00 +5°C° 0 mm 9 m/S 747 mmHg 66%
    14:00 +5°C° 0 mm 9 m/S 746 mmHg 66%
    15:00 +3°C° 0 mm 9 m/S 746 mmHg 69%
    16:00 +4°C° 0 mm 8 m/S 746 mmHg 71%
    17:00 +2°C° 0 mm 8 m/S 745 mmHg 74%
    18:00 +3°C° 0 mm 7 m/S 745 mmHg 75%
    19:00 +3°C° 0 mm 7 m/S 745 mmHg 76%
    20:00 +3°C° 0 mm 7 m/S 745 mmHg 78%
    21:00 +2°C° 0 mm 6 m/S 745 mmHg 79%
    22:00 +2°C° 0 mm 6 m/S 744 mmHg 80%
    23:00 +2°C° 0 mm 6 m/S 744 mmHg 81%

    27 Februar, Donnerstag

    Zeit Temperatur Niederschläge Wind Luftdruck Luftfeuchtigkeit
    00:00 +2°C° 0 mm 5 m/S 744 mmHg 82%
    01:00 +2°C° 0 mm 5 m/S 744 mmHg 83%
    02:00 +2°C° 0 mm 5 m/S 743 mmHg 84%
    03:00 +2°C° 0 mm 5 m/S 743 mmHg 85%
    04:00 +3°C° 0 mm 4 m/S 743 mmHg 87%
    05:00 +3°C° 0 mm 4 m/S 743 mmHg 88%
    06:00 +3°C° 0 mm 4 m/S 743 mmHg 85%
    07:00 +4°C° 0 mm 4 m/S 743 mmHg 83%
    08:00 +5°C° 0 mm 5 m/S 743 mmHg 80%
    09:00 +6°C° 0 mm 5 m/S 743 mmHg 73%
    10:00 +8°C° 0 mm 6 m/S 743 mmHg 65%
    11:00 +9°C° 0 mm 6 m/S 743 mmHg 58%
    12:00 +9°C° 0 mm 6 m/S 743 mmHg 59%
    13:00 +9°C° 0 mm 6 m/S 743 mmHg 61%
    14:00 +9°C° 0 mm 6 m/S 743 mmHg 63%
    15:00 +8°C° 0 mm 5 m/S 743 mmHg 68%
    16:00 +8°C° 0 mm 5 m/S 743 mmHg 73%
    17:00 +7°C° 0 mm 4 m/S 743 mmHg 77%
    18:00 +6°C° 0 mm 4 m/S 744 mmHg 80%
    19:00 +6°C° 0 mm 4 m/S 744 mmHg 83%
    20:00 +5°C° 0 mm 3 m/S 744 mmHg 85%
    21:00 +5°C° 0 mm 3 m/S 744 mmHg 86%
    22:00 +5°C° 0 mm 3 m/S 744 mmHg 87%
    23:00 +6°C° 0 mm 2 m/S 744 mmHg 88%
    Mehr zeigen